This demonstration page uses our WeatherBlox Daily Observations layout. Learn more.

Left ArrowRight Arrow

38.20091, -84.87328

Hourly Observations for January 18, 2020

Temp ( °F °C ) Dew Point ( °F °C ) Humidity (%) Winds ( mph kmh ) Pressure ( in mb ) Visibility ( mi km ) Precip ( " mm )
12:53 am 00:53 Cloudy 38 3.3 21 -6.1 51 51 SE 8 13 30.25 1024 10 16 0.00 0.00
1:53 am 01:53 Cloudy 40 4.4 23 -5 51 51 SE 7 11 30.22 1023 10 16 0.00 0.00
2:53 am 02:53 Cloudy 40 4.4 26 -3.3 58 58 ESE 5 7 30.18 1022 10 16 0.00 0.00
3:53 am 03:53 Cloudy 43 6.1 28 -2.2 56 56 SE 6 9 30.14 1021 10 16 0.00 0.00
4:53 am 04:53 Cloudy 42 5.6 32 0 68 68 SE 5 7 30.11 1020 10 16 0.00 0.00
5:53 am 05:53 Cloudy 44 6.7 32 0 63 63 SSE 7 11 30.06 1018 10 16 0.00 0.00
6:53 am 06:53 Cloudy 50 10 27 -2.8 41 41 S 15 24 30.02 1017 10 16 0.00 0.00
7:53 am 07:53 Cloudy with Light Rain 51 10.6 32 0 48 48 S 18 30 29.99 1016 10 16 0.00 0.00
8:48 am 08:48 Cloudy with Light Rain 46 8 41 5 82 82 S 15 24 29.99 1015 7 11 0.07 1.78
8:53 am 08:53 Cloudy with Light Rain 47 8.3 41 5 80 80 S 16 26 29.97 1015 9 14 0.07 1.78
9:36 am 09:36 Cloudy with Light Rain 48 8.9 43 6.1 83 83 S 16 26 29.95 1014 6 10 0.03 0.76
9:53 am 09:53 Cloudy with Light Rain 49 9.4 44 6.7 83 83 S 21 33 29.94 1014 10 16 0.03 0.76
10:11 am 10:11 Cloudy with Rain 49 9.4 44 6.7 83 83 S 23 37 29.94 1014 3 5 0.03 0.76
10:18 am 10:18 Cloudy with Rain 49 9.4 45 7.2 86 86 SSW 15 24 29.95 1014 2 3 0.05 1.27
10:28 am 10:28 Cloudy with Rain 49 9.4 45 7.2 86 86 SSW 18 30 29.95 1014 3 5 0.07 1.78
10:53 am 10:53 Cloudy with Rain 49 9.4 46 7.8 90 90 SSW 20 31 29.94 1014 4 6 0.13 3.30
11:29 am 11:29 Cloudy with Rain 50 10 46 7.8 86 86 SW 25 41 29.95 1014 3 5 0.10 2.54
11:53 am 11:53 Cloudy with Light Rain 49 9.4 46 7.8 90 90 SSW 24 39 29.94 1014 5 8 0.15 3.81
12:09 pm 12:09 Cloudy with Light Rain 50 10 46 7.8 86 86 SSW 22 35 29.93 1014 8 13 0.00 0.00
12:23 pm 12:23 Cloudy with Light Rain 50 10 46 7.8 86 86 SW 17 28 29.93 1014 7 11 0.01 0.25
12:53 pm 12:53 Cloudy 50 10 46 7.8 86 86 SSW 25 41 29.92 1013 10 16 0.02 0.51
1:53 pm 13:53 Cloudy with Light Rain 51 10.6 47 8.3 86 86 SW 21 33 29.91 1013 6 10 0.00 0.00
2:53 pm 14:53 Cloudy 52 11.1 48 8.9 86 86 SW 15 24 29.90 1013 10 16 0.01 0.25
3:35 pm 15:35 Cloudy 52 11.1 48 8.9 86 86 SW 21 33 29.89 1012 10 16 0.00 0.00
3:53 pm 15:53 Cloudy 53 11.7 48 8.9 83 83 SW 18 30 29.88 1012 10 16 0.00 0.00
4:53 pm 16:53 Cloudy 53 11.7 48 8.9 83 83 SW 17 28 29.88 1012 10 16 0.00 0.00
5:40 pm 17:40 Cloudy with Light Rain 53 11.7 49 9.4 86 86 WSW 9 15 29.90 1013 10 16 0.00 0.00
5:53 pm 17:53 Cloudy 53 11.7 47 8.3 80 80 WNW 13 20 29.91 1013 10 16 0.00 0.00
6:00 pm 18:00 Cloudy 52 11.1 45 7.2 77 77 W 14 22 29.93 1013 10 16 0.00 0.00
6:53 pm 18:53 Cloudy 48 8.9 41 5 77 77 W 13 20 29.93 1014 10 16 0.00 0.00
7:53 pm 19:53 Mostly Cloudy 45 7.2 38 3.3 77 77 W 9 15 29.96 1015 10 16 0.00 0.00
8:26 pm 20:26 Partly Cloudy 43 6.1 33 0.6 68 68 W 10 17 29.99 1016 10 16 0.00 0.00
8:53 pm 20:53 Clear 43 6.1 33 0.6 68 68 W 12 19 29.97 1015 10 16 0.00 0.00
9:17 pm 21:17 Mostly Cloudy 43 6.1 34 1.1 71 71 W 8 13 29.99 1016 10 16 0.00 0.00
9:50 pm 21:50 Partly Cloudy 41 5 30 -1 66 66 W 10 17 30.02 1016 10 16 0.00 0.00
9:53 pm 21:53 Partly Cloudy 40 4.4 31 -0.6 70 70 WNW 14 22 29.99 1016 10 16 0.00 0.00
10:27 pm 22:27 Mostly Cloudy 38 3.3 28 -2.2 68 68 W 12 19 30.04 1017 10 16 0.00 0.00
10:53 pm 22:53 Mostly Cloudy 36 2.2 26 -3.3 67 67 WNW 12 19 30.03 1017 10 16 0.00 0.00
11:30 pm 23:30 Cloudy 36 2.2 26 -3.3 67 67 W 14 22 30.07 1018 10 16 0.00 0.00
11:53 pm 23:53 Cloudy 35 1.7 26 -3.3 70 70 W 12 19 30.05 1018 10 16 0.00 0.00

Powered by AerisWeather